Keps
Threads by month
- ----- 2024 -----
- December
- November
- October
- September
- August
- July
- June
- May
- April
- March
- February
- January
- ----- 2023 -----
- December
- November
- October
- September
- August
- July
- June
- May
- April
- March
- February
- January
- ----- 2022 -----
- December
- November
- October
- September
- August
- July
- June
- May
- April
- March
- February
- January
- ----- 2021 -----
- December
- November
- October
- September
- August
- July
- June
- May
- April
- March
- February
- January
- ----- 2020 -----
- December
- November
- October
- September
- August
- July
- June
- May
- April
- March
- February
- January
- ----- 2019 -----
- December
- November
- October
- September
- August
- July
- June
- May
- April
- March
- February
- January
- ----- 2018 -----
- December
- November
- October
- September
- August
- July
- June
- May
- April
- March
- February
- January
- ----- 2017 -----
- December
- November
- October
- September
- August
- July
- June
- May
- April
- March
- February
- January
- ----- 2016 -----
- December
- November
- October
- September
- August
- July
- June
- May
- April
- March
- February
- January
- ----- 2015 -----
- December
- November
- October
- September
- August
- July
- June
- May
- April
- March
- February
- January
- ----- 2014 -----
- December
- November
- October
- September
- August
- July
- June
- May
- April
- March
- February
- January
- ----- 2013 -----
- December
- November
- October
- September
- August
- July
- June
- May
- April
- March
- February
- January
- ----- 2012 -----
- December
- November
- October
- September
- August
- July
- June
- May
- April
- March
- February
- January
- ----- 2011 -----
- December
- November
- October
- September
- August
- July
- June
- May
- April
- March
- February
- January
- ----- 2010 -----
- December
- November
- October
- September
- August
- July
- June
- May
- April
- March
- February
- January
- ----- 2009 -----
- December
- November
- October
- September
- August
- July
- June
- May
- April
- March
- February
- January
- ----- 2008 -----
- December
- November
- October
- September
- August
- July
- June
- May
- April
- March
- February
- January
- ----- 2007 -----
- December
- November
- October
- September
- August
- July
- June
- May
- April
- March
- February
- January
- ----- 2006 -----
- December
- November
- October
- September
September 2006
- 1 participants
- 12 discussions
SB KEPS @ AMSAT $ORB06271.N
2Line Orbital Elements 06271.AMSAT
HR AMSAT ORBITAL ELEMENTS FOR AMATEUR SATELLITES IN NASA FORMAT
FROM WA5QGD FORT WORTH,TX September 28, 2006
Send SUBSCRIBE KEPS/UNSUBSCRIBE KEPS to majordomo(a)amsat.org only
BID: ORB06271.N
DECODE 2-LINE ELSETS WITH THE FOLLOWING KEY:
1 AAAAAU 00 0 0 BBBBB.BBBBBBBB .CCCCCCCC 00000-0 00000-0 0 DDDZ
2 AAAAA EEE.EEEE FFF.FFFF GGGGGGG HHH.HHHH III.IIII JJ.JJJJJJJJKKKKKZ
KEY: A-CATALOGNUM B-EPOCHTIME C-DECAY D-ELSETNUM E-INCLINATION F-RAAN
G-ECCENTRICITY H-ARGPERIGEE I-MNANOM J-MNMOTION K-ORBITNUM Z-CHECKSUM
TO ALL RADIO AMATEURS BT
AO-07
1 07530U 74089B 06270.65808090 -.00000028 00000-0 10000-3 0 06929
2 07530 101.5581 310.9901 0012101 047.5070 312.7018 12.53571456458221
UO-11
1 14781U 84021B 06270.64893804 -.00000165 00000-0 -14752-4 0 01868
2 14781 098.2070 283.0451 0008311 300.1718 059.8646 14.79463273210912
RS-10/11
1 18129U 87054A 06270.95417891 .00000024 00000-0 10075-4 0 01236
2 18129 082.9214 252.1266 0011612 159.6880 200.4734 13.72778908965250
RS-15
1 23439U 94085A 06270.89845078 -.00000039 00000-0 10597-3 0 00406
2 23439 064.8161 071.1039 0166181 236.3669 122.1303 11.27552021484125
FO-29
1 24278U 96046B 06270.96642649 -.00000034 00000-0 -54171-6 0 03345
2 24278 098.5185 261.3047 0351445 043.1803 319.6327 13.52923843499446
SO-33
1 25509U 98061B 06270.43296753 .00000071 00000-0 48840-6 0 07557
2 25509 031.4361 271.2666 0354971 290.3725 065.9089 14.28121150413660
VO-52
1 28650U 05017B 06270.80681274 -.00000046 00000-0 96706-6 0 4399
2 28650 097.8634 341.9761 0027851 030.0099 330.2687 14.81176866 75576
AO-16
1 20439U 90005D 06270.81200741 -.00000013 00000-0 10292-4 0 8554
2 20439 098.1895 274.9949 0009984 249.0508 110.9595 14.31733862871006
LO-19
1 20442U 90005G 06270.54525718 -.00000041 00000-0 -21182-6 0 7892
2 20442 098.1870 284.2637 0010988 248.4980 111.5047 14.31976313871104
AO-27
1 22825U 93061C 06271.50242859 -.00000055 00000-0 -56031-5 0 5065
2 22825 098.2954 248.3180 0008129 322.1121 037.9492 14.29184257678116
IO-26
1 22826U 93061D 06270.68463566 -.00000008 00000-0 13024-4 0 1982
2 22826 098.2889 248.7133 0008590 322.2514 037.8055 14.29428595678070
PO-28
1 22829U 93061G 06270.76864777 -.00000106 00000-0 -25197-4 0 04823
2 22829 098.2786 249.9905 0009036 294.4457 065.5772 14.30124026678305
GO-32
1 25397U 98043D 06271.68389195 .00000106 00000-0 65350-4 0 1201
2 25397 098.4552 324.7898 0000468 287.1682 072.9458 14.23112002426962
MO-46
1 26548U 00057D 06271.68910358 .00000183 00000-0 40452-4 0 6070
2 26548 064.5566 271.5949 0042553 232.6334 127.0890 14.83023888324751
NO-44
1 26931U 01043C 06270.85283452 -.00000171 00000-0 -34478-4 0 04122
2 26931 067.0499 103.2328 0005247 252.9142 107.1374 14.29452633260606
SO-50
1 27607U 02058C 06271.83046588 -.00000055 00000-0 12980-4 0 1329
2 27607 064.5591 158.4753 0035394 104.0245 256.4773 14.71175718202670
CO-55
1 27844U 03031E 06270.65245492 .00000023 00000-0 31201-4 0 8584
2 27844 098.7230 277.5329 0010341 124.2855 235.9287 14.20459016168202
CO-57
1 27848U 03031J 06271.55601309 .00000041 00000-0 39724-4 0 8242
2 27848 098.7222 277.7258 0010157 125.2872 234.9259 14.20285743168319
AO-51
1 28375U 04025K 06270.66830295 .00000017 00000-0 18332-4 0 06402
2 28375 098.1540 317.9772 0083298 258.0041 101.1806 14.40534209117929
CO-56
1 28941U 06005C 06270.94631379 .00016552 22563-5 20315-3 0 02351
2 28941 098.1708 299.6038 0269221 113.7552 249.2169 15.28224741033221
NOAA-10
1 16969U 86073A 06270.56351528 .00000052 00000-0 39717-4 0 03627
2 16969 098.7595 282.4173 0011841 210.1579 149.8929 14.27304798041768
NOAA-11
1 19531U 88089A 06270.83407586 -.00000193 00000-0 -77260-4 0 03049
2 19531 098.8249 358.1308 0012314 059.8159 300.4232 14.14817251929050
NOAA-12
1 21263U 91032A 06270.79442166 .00000027 00000-0 30364-4 0 07989
2 21263 098.7387 263.6853 0013055 146.4126 213.7866 14.25508244798865
MET-3/5
1 21655U 91056A 06270.92515554 .00000051 00000-0 10000-3 0 01869
2 21655 082.5577 188.2135 0013498 139.0363 221.1772 13.17007534726887
MET-2/21
1 22782U 93055A 06270.64788931 .00000049 00000-0 31532-4 0 06262
2 22782 082.5441 250.1584 0020771 251.9020 107.9878 13.83610452660216
OKEAN-4
1 23317U 94066A 06270.75171184 .00000378 00000-0 44024-4 0 616
2 23317 082.5427 181.3439 0023737 039.7550 320.5390 14.82403066645175
NOAA-14
1 23455U 94089A 06270.64265874 .00000308 00000-0 18695-3 0 02947
2 23455 099.0266 329.9565 0010049 120.5849 239.6310 14.13686818605545
SICH-1
1 23657U 95046A 06270.74790210 .00000326 00000-0 38483-4 0 8644
2 23657 082.5299 322.2558 0024992 029.3665 330.8946 14.81394470597177
NOAA-15
1 25338U 98030A 06270.84826238 -.00000134 00000-0 -39232-4 0 06795
2 25338 098.5212 270.1037 0011586 075.0442 285.2000 14.24603449435335
RESURS
1 25394U 98043A 06270.79281081 .00000001 00000-0 18965-4 0 04795
2 25394 098.4820 330.1663 0000628 227.5176 132.5950 14.24112593427004
FENGYUN1
1 25730U 99025A 06271.59286237 .00000260 00000-0 16570-3 0 8348
2 25730 098.6350 260.2695 0013872 203.9728 156.0791 14.11817309380603
OKEAN-0
1 25860U 99039A 06270.75871373 .00000058 00000-0 16135-4 0 08630
2 25860 097.7337 280.3137 0001589 097.3360 262.8034 14.73391292386850
NOAA-16
1 26536U 00055A 06270.86738485 -.00000146 00000-0 -54455-4 0 00627
2 26536 099.0802 238.7523 0010137 187.8862 172.2145 14.12371096310071
NOAA-17
1 27453U 02032A 06270.70164107 .00000037 00000-0 35010-4 0 00825
2 27453 098.6128 340.8818 0012476 135.2699 224.9486 14.23812477221362
NOAA-18
1 28654U 05018A 06270.67534438 .00000350 00000-0 21874-3 0 06512
2 28654 098.7951 211.7889 0013800 294.1978 065.7737 14.10995768069835
HUBBLE
1 20580U 90037B 06270.95514104 .00000407 00000-0 18841-4 0 07252
2 20580 028.4671 099.9378 0003860 192.5608 167.4884 15.00099448700542
UARS
1 21701U 91063B 06270.79291747 .00004862 00000-0 91606-4 0 8794
2 21701 056.9768 009.8692 0105404 049.0579 311.9540 15.44739508825156
PO-34
1 25520U 98064B 06270.86241590 .00000454 00000-0 12765-4 0 05939
2 25520 028.4594 064.1995 0005068 276.0552 083.9463 15.16796967437653
ISS
1 25544U 98067A 06271.92812500 .00013739 00000-0 89180-4 0 7624
2 25544 051.6381 013.0552 0012769 037.3578 132.3767 15.76249096449522
OO-38
1 26063U 00004C 06271.70844370 -.00000015 00000-0 15204-4 0 7283
2 26063 100.1944 221.4091 0036840 175.2843 184.8687 14.35778047349529
NO-45
1 26932U 01043D 06271.84143702 -.00000041 00000-0 16405-4 0 4200
2 26932 067.0549 100.4097 0006296 235.1960 124.8549 14.29535813260782
UWE-1
1 28892U 05043C 06270.90394073 .00000145 00000-0 40294-4 0 05620
2 28892 098.1494 167.3915 0016640 208.6734 151.3553 14.59399170048952
CO-58
1 28895U 05043F 06270.75435817 .00000205 00000-0 52992-4 0 5465
2 28895 098.1508 167.3608 0017290 209.3508 150.6716 14.59449400 48819
NCUBE2
1 28897U 05043H 06270.24083949 .00000127 00000-0 36454-4 0 01257
2 28897 098.1489 166.8329 0016732 213.5580 146.4575 14.59605518041015
/EX
1
0
SB KEPS @ AMSAT $ORB06271.O
Orbital Elements 06271.OSCAR
HR AMSAT ORBITAL ELEMENTS FOR OSCAR SATELLITES
FROM WA5QGD FORT WORTH,TX September 28, 2006
Send SUBSCRIBE KEPS/UNSUBSCRIBE KEPS to majordomo(a)amsat.org only
BID: ORB06271.O
TO ALL RADIO AMATEURS BT
Satellite: AO-07
Catalog number: 07530
Epoch time: 06270.65808090
Element set: 0692
Inclination: 101.5581 deg
RA of node: 310.9901 deg
Eccentricity: 0.0012101
Arg of perigee: 047.5070 deg
Mean anomaly: 312.7018 deg
Mean motion: 12.53571456 rev/day
Decay rate: -2.8e-07 rev/day^2
Epoch rev: 45822
Checksum: 266
Satellite: UO-11
Catalog number: 14781
Epoch time: 06270.64893804
Element set: 0186
Inclination: 098.2070 deg
